Wind_Speed
43 42 42 41 41 42 43 43 42 40 39 36 35 35 36 35 35 34 35 35 36 36 37 37 38 39 39 40 40 41 42 42 42 43 43 43 44 44 45 45 46 47 48 49
42 42 42 42 41 42 43 43 43 41 40 39 38 37 38 38 37 37 37 38 38 39 39 39 40 41 41 42 42 43 43 44 44 45 46 46 46 46 46 46 47 48 49 50
42 41 42 43 41 41 43 43 42 42 40 40 40 40 39 39 39 39 39 40 40 40 40 41 42 42 43 43 44 44 45 45 46 47 48 48 48 48 47 48 48 49 50 50
39 40 42 42 40 41 41 41 42 42 41 42 42 42 41 41 40 40 40 41 40 41 42 43 43 44 45 45 45 46 46 46 47 47 48 49 49 48 48 49 50 50 51 51
34 37 40 39 38 39 39 40 41 41 41 41 41 41 41 41 41 41 41 41 41 42 43 43 44 45 46 46 46 46 46 46 47 47 48 48 49 50 50 51 51 52 53 54
33 34 36 36 36 37 38 38 38 39 40 40 40 41 41 41 41 41 41 42 42 43 43 44 45 46 46 46 46 47 47 47 47 48 48 49 49 50 50 51 53 54 54 55
33 33 34 33 33 34 36 37 36 36 37 38 39 40 40 41 41 41 40 41 41 42 43 44 45 46 46 46 47 47 48 47 48 48 49 49 50 50 51 52 53 53 54 54
31 32 31 31 31 32 33 32 34 35 35 36 37 38 38 39 39 39 39 39 40 41 42 43 45 46 46 46 47 48 48 48 48 49 49 49 49 50 51 52 52 52 52 52
29 29 30 30 31 31 31 31 31 33 33 33 34 36 37 37 37 37 38 39 40 41 41 43 44 45 45 46 46 47 48 48 48 48 48 49 50 50 51 51 51 52 51 51
26 26 27 28 29 29 30 31 32 32 32 32 32 33 34 35 36 37 37 38 39 40 40 41 42 43 44 45 45 46 47 47 48 48 48 49 49 50 50 50 50 51 50 50
25 25 25 26 27 28 29 30 31 31 32 32 31 32 33 34 35 36 37 38 38 38 39 40 41 42 43 44 45 45 46 47 48 48 49 49 49 49 49 49 49 49 49 48
23 25 26 26 27 27 27 28 29 30 31 31 32 32 32 34 35 35 36 36 37 38 39 40 40 41 42 44 44 45 46 47 48 48 48 48 48 48 48 48 48 48 47 47
23 24 25 25 26 27 27 28 29 30 31 31 32 32 33 34 35 36 37 37 38 39 39 40 40 41 42 43 44 44 46 46 47 47 47 47 47 47 47 47 47 46 45 44
24 24 25 26 27 28 29 29 30 31 32 32 33 33 33 34 35 36 38 38 39 40 40 40 40 41 42 42 43 44 44 45 45 45 45 46 46 46 45 45 44 43 42 42
25 25 25 26 27 28 29 29 30 31 31 32 32 33 34 35 36 37 37 38 39 39 40 40 40 41 41 42 43 43 43 43 44 44 44 43 43 43 42 42 41 41 41 41
24 24 25 26 27 28 29 30 30 31 31 32 32 33 34 35 36 36 37 37 38 38 39 40 40 41 41 42 42 42 42 42 42 42 41 41 41 40 40 39 40 40 40 40
23 23 24 25 26 27 28 29 30 31 31 32 32 33 33 34 35 35 36 36 37 38 39 39 40 41 41 41 41 40 40 40 40 40 39 39 38 38 38 38 38 38 37 37
22 22 23 24 25 26 27 28 30 31 31 32 32 32 32 33 34 35 35 36 37 37 38 39 39 39 39 39 39 38 39 38 38 38 37 36 35 35 36 36 36 35 35 35
23 23 24 24 24 25 27 28 29 30 31 31 31 31 32 33 33 33 34 35 35 35 36 36 36 36 37 37 37 37 37 36 35 34 34 33 33 33 33 33 32 32 32 32
23 24 25 25 26 26 26 27 27 28 29 30 30 31 31 32 32 32 32 33 33 34 34 34 34 35 35 36 36 35 34 33 32 31 31 31 30 30 30 30 30 30 30 30
25 25 26 26 26 27 27 27 28 29 29 29 30 31 31 31 31 31 32 32 32 33 33 33 34 34 34 33 33 33 32 31 30 30 30 30 30 30 29 29 29 29 29 28
26 26 26 26 27 27 27 28 28 29 29 29 30 30 30 30 30 30 31 31 31 32 32 32 33 33 33 32 31 30 30 29 29 29 29 29 29 29 28 28 28 27 27 27
26 26 27 27 28 28 28 28 29 29 29 29 30 30 30 30 30 30 30 31 31 31 31 31 31 31 30 30 30 29 28 28 28 28 28 28 28 28 27 27 27 26 26 26
26 27 27 28 28 28 28 29 29 29 29 29 30 30 30 30 30 30 30 31 31 30 29 29 29 29 28 28 28 27 27 27 27 27 27 27 27 26 26 25 25 25 24 23
27 27 27 27 27 27 27 27 27 28 28 28 28 29 29 29 29 29 29 28 28 27 27 27 27 27 27 26 26 26 27 27 27 26 26 26 25 24 24 24 23 23 22 22
24 25 25 25 25 25 25 25 26 26 26 27 27 27 27 27 27 27 27 26 26 26 26 26 25 25 25 25 25 25 25 25 25 24 24 23 22 22 22 22 22 21 20 20
22 23 24 24 24 25 25 25 25 25 26 26 26 26 25 25 25 25 25 25 25 24 24 24 24 24 24 24 24 23 23 23 22 22 22 21 21 21 20 20 20 20 19 19
Wind_Direction
245 246 246 246 247 248 247 247 249 249 249 248 248 249 249 250 250 251 251 250 250 251 252 254 255 254 255 257 259 260 260 261 263 264 265 267 267 268 267 267 267 267 267 268
245 245 246 247 247 247 248 248 248 248 247 248 247 247 248 249 251 252 252 252 252 252 253 254 256 256 258 259 261 262 262 263 265 266 267 268 268 269 268 268 268 268 269 269
245 245 247 247 246 248 248 248 247 247 248 248 248 248 248 249 250 252 253 254 254 255 255 256 258 259 261 262 263 264 265 266 267 267 269 269 270 269 269 269 269 269 270 270
246 244 246 247 246 247 248 246 246 247 248 248 248 248 248 249 250 252 253 254 255 256 256 257 259 261 262 265 266 267 267 267 269 269 269 270 270 270 270 271 271 271 271 271
246 247 248 246 246 246 247 246 245 246 247 248 249 250 250 251 252 253 254 255 256 257 258 258 260 262 264 266 267 268 268 269 269 270 271 271 270 271 272 272 272 272 272 272
247 249 249 247 246 246 246 247 246 247 247 248 249 250 251 252 253 254 255 256 257 258 259 260 261 263 265 266 267 268 269 270 270 271 272 272 272 272 273 273 273 273 274 274
247 249 250 249 248 246 246 247 247 248 249 250 251 253 253 254 255 256 256 257 258 259 260 261 262 264 265 266 267 269 269 270 271 271 272 273 273 274 274 274 274 274 275 275
248 249 251 250 249 248 249 249 250 250 251 252 252 253 254 255 256 257 257 258 259 260 261 262 263 264 266 267 268 269 270 270 271 271 272 273 273 274 274 275 275 275 275 275
249 249 248 249 249 248 249 250 251 250 250 252 253 254 255 256 256 257 259 259 261 261 262 263 264 265 266 268 269 270 270 271 271 272 272 273 274 275 275 275 275 275 275 275
248 248 247 247 248 250 251 252 252 251 251 252 252 254 255 257 258 259 261 262 262 264 265 265 266 267 268 269 270 271 272 272 273 273 274 274 275 275 275 275 275 275 276 276
247 247 248 248 249 249 251 252 252 251 251 252 253 255 257 257 258 260 262 263 263 264 266 266 267 269 270 271 271 272 273 273 273 274 274 275 275 275 275 275 275 276 276 276
246 247 249 250 249 250 251 253 254 254 253 254 255 257 258 259 260 260 261 262 263 265 266 267 269 270 271 271 272 273 273 274 274 274 275 275 275 275 275 275 275 275 276 275
247 248 251 252 252 252 253 255 257 257 257 257 257 258 259 260 260 261 263 264 265 265 266 268 269 271 272 273 273 274 274 275 275 275 276 276 275 275 274 274 274 274 274 274
251 253 255 255 256 256 256 257 258 258 259 259 259 259 260 261 262 264 265 266 267 268 268 269 270 271 272 274 275 275 275 275 275 275 276 276 275 274 274 273 272 272 272 272
253 255 255 255 256 257 258 258 258 258 259 260 260 260 261 263 265 266 267 268 268 268 269 269 270 271 273 274 275 275 275 276 276 276 276 276 276 275 274 273 272 272 272 272
254 257 258 258 258 258 258 259 260 260 261 262 263 264 264 265 266 267 268 269 269 269 269 270 271 272 273 274 275 275 276 276 276 276 275 275 275 275 275 273 273 273 273 273
256 259 260 260 260 261 262 262 262 263 264 265 266 267 267 267 268 269 269 269 270 271 271 272 273 274 275 275 276 276 277 277 277 276 275 275 275 275 275 274 274 274 275 275
258 261 263 264 263 263 264 265 266 266 267 268 268 269 270 271 272 272 271 270 271 272 273 274 275 275 276 276 276 276 277 276 276 275 274 274 274 275 275 275 275 275 275 276
260 262 265 267 268 268 268 268 268 269 269 270 271 271 272 273 275 275 273 273 273 274 274 275 276 276 277 278 278 277 277 276 276 274 273 273 274 275 276 276 276 276 277 276
263 265 267 268 270 271 271 271 272 273 273 273 274 275 276 277 277 276 275 275 276 277 277 277 277 277 278 278 277 276 276 274 274 273 272 273 274 275 276 276 277 277 277 276
266 267 269 270 270 271 272 272 273 274 275 275 275 276 277 277 277 276 275 276 276 277 277 277 277 277 277 276 276 275 274 273 272 272 272 273 274 275 276 277 277 277 277 276
267 268 269 270 272 273 273 274 274 275 276 276 276 276 278 278 277 277 277 277 276 276 277 277 277 277 276 275 274 273 272 272 272 272 272 273 273 274 275 275 276 277 277 276
269 270 271 272 273 274 275 275 275 276 277 277 277 277 278 278 277 276 276 276 276 276 277 277 277 276 275 274 273 271 271 271 270 271 272 272 272 273 273 274 275 276 276 275
272 272 273 273 274 275 275 275 275 276 276 277 278 278 279 279 277 276 276 276 276 277 276 277 276 275 274 273 271 270 270 270 271 271 271 273 273 273 273 273 275 275 275 274
273 273 273 273 275 276 276 275 275 275 276 277 279 280 279 278 276 275 276 276 277 277 276 276 275 274 273 272 271 271 271 271 271 272 273 273 272 272 273 273 274 273 273 273
275 275 274 274 275 275 275 275 274 274 275 277 279 280 280 278 277 276 276 276 277 277 276 276 275 274 272 271 271 271 270 271 271 271 271 270 270 271 272 272 270 270 270 269
279 277 276 275 275 275 275 275 274 274 276 278 279 280 278 278 277 276 276 276 276 276 276 275 275 273 271 270 269 268 268 268 268 268 268 268 268 269 270 269 268 268 268 268
Height
5581 5585 5588 5591 5595 5598 5601 5604 5608 5613 5616 5620 5622 5624 5626 5627 5630 5632 5634 5636 5638 5640 5641 5643 5644 5646 5647 5648 5648 5649 5649 5649 5649 5649 5648 5648 5647 5647 5647 5646 5646 5645 5645 5645
5569 5573 5576 5579 5583 5587 5590 5593 5597 5600 5605 5608 5610 5613 5615 5617 5620 5622 5624 5626 5628 5629 5631 5632 5634 5635 5636 5637 5637 5637 5637 5637 5637 5637 5637 5636 5635 5635 5634 5633 5633 5632 5631 5631
5558 5562 5563 5566 5573 5576 5579 5583 5586 5589 5595 5597 5599 5602 5604 5607 5609 5611 5613 5615 5617 5619 5620 5621 5623 5624 5624 5625 5625 5625 5625 5625 5625 5624 5624 5623 5623 5622 5621 5620 5619 5618 5617 5616
5546 5550 5551 5559 5563 5565 5567 5571 5575 5578 5582 5585 5588 5590 5593 5595 5598 5600 5602 5604 5606 5607 5609 5610 5611 5612 5612 5613 5613 5613 5612 5612 5611 5611 5610 5609 5609 5608 5607 5606 5606 5605 5603 5602
5535 5537 5540 5546 5551 5554 5556 5559 5563 5567 5570 5573 5576 5579 5582 5584 5586 5589 5591 5593 5594 5596 5597 5598 5599 5599 5600 5600 5600 5600 5599 5599 5598 5597 5597 5596 5595 5594 5593 5592 5591 5590 5589 5587
5525 5527 5531 5537 5541 5543 5546 5548 5553 5556 5559 5562 5565 5568 5572 5573 5575 5577 5579 5581 5582 5584 5585 5586 5587 5587 5587 5587 5587 5587 5586 5586 5585 5584 5583 5583 5581 5580 5579 5578 5577 5575 5574 5572
5516 5518 5521 5527 5530 5532 5536 5539 5543 5545 5548 5551 5554 5557 5560 5561 5563 5565 5567 5568 5570 5571 5572 5573 5574 5574 5574 5574 5574 5573 5572 5572 5571 5570 5569 5568 5567 5566 5564 5563 5562 5560 5559 5557
5508 5511 5516 5517 5520 5523 5525 5529 5532 5534 5537 5540 5542 5545 5547 5549 5551 5553 5554 5556 5557 5559 5560 5560 5561 5561 5561 5561 5560 5560 5559 5559 5557 5556 5555 5553 5552 5551 5549 5547 5546 5545 5543 5542
5501 5504 5506 5508 5510 5513 5516 5519 5521 5524 5527 5529 5531 5534 5536 5538 5539 5541 5543 5544 5545 5546 5547 5547 5547 5547 5548 5547 5547 5546 5545 5544 5543 5542 5540 5539 5537 5536 5534 5532 5530 5529 5528 5526
5492 5494 5497 5499 5501 5504 5506 5509 5512 5514 5517 5519 5521 5523 5525 5526 5528 5529 5531 5532 5533 5534 5534 5534 5534 5534 5534 5533 5533 5532 5531 5530 5529 5527 5526 5524 5522 5521 5519 5517 5515 5514 5513 5511
5484 5486 5489 5491 5493 5496 5498 5500 5502 5505 5507 5509 5510 5512 5514 5515 5517 5518 5519 5520 5521 5521 5522 5522 5521 5521 5520 5519 5519 5518 5517 5516 5514 5513 5511 5509 5507 5506 5504 5503 5500 5499 5498 5496
5477 5479 5481 5484 5485 5487 5489 5491 5493 5495 5497 5499 5500 5502 5503 5504 5505 5506 5507 5508 5509 5509 5509 5509 5508 5508 5507 5506 5505 5504 5503 5501 5500 5498 5496 5494 5492 5491 5489 5488 5486 5484 5483 5481
5469 5471 5473 5475 5477 5478 5480 5482 5484 5486 5487 5489 5490 5492 5493 5494 5495 5495 5496 5496 5497 5497 5496 5496 5496 5495 5494 5492 5491 5490 5489 5487 5485 5483 5481 5480 5478 5476 5475 5474 5472 5471 5469 5468
5462 5464 5466 5467 5469 5470 5472 5473 5475 5476 5478 5479 5480 5481 5482 5483 5484 5484 5484 5484 5484 5484 5484 5483 5483 5482 5480 5479 5478 5476 5475 5473 5471 5469 5468 5466 5464 5462 5461 5460 5459 5458 5457 5455
5455 5456 5458 5459 5460 5462 5463 5464 5466 5467 5468 5469 5470 5471 5472 5472 5473 5473 5472 5472 5472 5472 5471 5471 5470 5469 5467 5466 5465 5463 5462 5460 5458 5456 5454 5453 5451 5449 5448 5447 5446 5445 5444 5443
5447 5448 5450 5451 5452 5453 5454 5455 5457 5458 5458 5459 5460 5460 5460 5461 5461 5461 5461 5460 5460 5460 5459 5458 5458 5456 5455 5453 5452 5450 5449 5447 5445 5444 5442 5440 5439 5437 5436 5435 5433 5432 5432 5431
5440 5441 5442 5442 5443 5444 5445 5446 5447 5448 5449 5449 5450 5450 5450 5450 5450 5450 5449 5448 5448 5447 5447 5446 5445 5444 5442 5441 5439 5438 5436 5435 5433 5431 5430 5428 5427 5426 5424 5423 5422 5421 5420 5418
5433 5433 5434 5434 5435 5436 5436 5437 5437 5438 5438 5439 5439 5439 5439 5439 5438 5438 5437 5436 5436 5435 5435 5433 5432 5431 5430 5428 5427 5426 5424 5423 5421 5420 5418 5417 5416 5414 5413 5412 5410 5409 5408 5407
5425 5426 5426 5427 5427 5427 5427 5428 5428 5428 5428 5428 5429 5428 5428 5427 5427 5426 5425 5424 5424 5423 5423 5421 5420 5419 5418 5416 5415 5414 5412 5411 5410 5408 5407 5406 5405 5404 5402 5401 5400 5399 5398 5397
5418 5418 5419 5419 5419 5419 5419 5419 5419 5419 5418 5418 5418 5418 5417 5416 5415 5415 5414 5413 5412 5411 5410 5409 5408 5407 5406 5405 5403 5402 5401 5400 5399 5398 5397 5396 5395 5394 5393 5391 5390 5389 5388 5387
5411 5411 5411 5411 5411 5410 5410 5410 5410 5409 5409 5409 5408 5408 5407 5406 5405 5404 5403 5402 5401 5400 5399 5398 5397 5396 5394 5393 5392 5391 5391 5390 5389 5388 5388 5387 5386 5385 5384 5382 5381 5380 5379 5378
5402 5402 5402 5402 5402 5402 5401 5400 5400 5400 5399 5399 5398 5397 5397 5396 5395 5394 5393 5392 5391 5389 5388 5387 5386 5385 5384 5383 5382 5381 5380 5380 5379 5379 5378 5377 5376 5376 5375 5374 5373 5372 5371 5369
5394 5393 5393 5393 5393 5392 5392 5391 5391 5390 5390 5389 5388 5387 5387 5386 5385 5384 5383 5382 5380 5379 5378 5377 5375 5374 5373 5373 5372 5372 5371 5371 5370 5370 5369 5368 5368 5367 5366 5365 5364 5363 5362 5361
5385 5385 5384 5384 5383 5383 5382 5382 5381 5380 5380 5379 5378 5377 5377 5376 5375 5373 5372 5371 5370 5369 5368 5367 5365 5365 5364 5363 5363 5363 5362 5362 5361 5361 5360 5360 5359 5358 5358 5357 5356 5355 5354 5354
5376 5375 5375 5374 5374 5373 5373 5372 5372 5371 5370 5370 5369 5368 5366 5365 5364 5363 5362 5361 5360 5359 5358 5357 5356 5355 5355 5354 5354 5354 5353 5353 5352 5352 5352 5351 5351 5350 5349 5349 5348 5348 5347 5346
5367 5366 5366 5365 5365 5364 5364 5363 5362 5362 5361 5360 5359 5358 5357 5355 5354 5353 5353 5352 5351 5350 5349 5348 5347 5346 5346 5346 5345 5345 5345 5344 5344 5344 5343 5343 5343 5342 5342 5341 5341 5341 5340 5339
5359 5358 5357 5357 5356 5355 5355 5354 5353 5353 5352 5351 5350 5349 5348 5347 5345 5344 5343 5343 5342 5341 5340 5339 5338 5338 5337 5337 5337 5337 5337 5336 5336 5336 5336 5336 5336 5335 5335 5335 5334 5334 5334 5333